OpenBCM V1.08-5-g2f4a (Linux)

Packet Radio Mailbox

IZ3LSV

[San Dona' di P. JN]

 Login: GUEST





  
CX2SA  > KEPS     26.04.25 14:25l 354 Lines 16863 Bytes #38 (0) @ AMSAT
BID : ORB25115.1
Read: GUEST
Subj: 2Line Orbital Elements 25115.AMSAT
Path: IZ3LSV<ED1ZAC<CX2SA
Sent: 250425/0024Z @:CX2SA.SAL.URY.SOAM #:50775 [Salto] FBB7.00e $:ORB25115.1
From: CX2SA@CX2SA.SAL.URY.SOAM
To  : KEPS@AMSAT


QST de W1STR

AMSAT Orbital Elements for Amateur Satellites in TLE Format
>From Orbital Analysis Office
New England Sci-Tech STEM Education Center
Natick, MA April 25, 2025
To all radio amateurs


These element sets describe the orbits of various satellites
in use by the amateur radio community. For details see:
www.amsat.org/keplerian-elements-formats/

A daily update of element sets is available at:
www.amsat.org/tle/daily-bulletin.txt
or without bulletin text:
www.amsat.org/tle/dailytle.txt


AO-07
1 07530U 74089B   25114.53789480 -.00000017  00000-0  18526-3 0  9994
2 07530 101.9948 118.3099 0012021 208.4922 282.8410 12.53688581308297
UO-11
1 14781U 84021B   25113.77213234  .00002913  00000-0  31362-3 0  9990
2 14781  97.7500  81.0838 0009144 124.2534 235.9551 14.89208865194676
AO-27
1 22825U 93061C   25113.08412465  .00000232  00000-0  10564-3 0  9996
2 22825  98.7405 174.3938 0007346 248.8563 111.1835 14.30779522646922
FO-29
1 24278U 96046B   25114.69131233  .00000006  00000-0  39535-4 0  9994
2 24278  98.5805  14.6152 0350916 101.4474 262.6289 13.53244839416811
NOAA-15
1 25338U 98030A   25114.81360893  .00000376  00000-0  17209-3 0  9990
2 25338  98.5393 141.0384 0011281 129.7374 230.4803 14.26949864401870
GO-32
1 25397U 98043D   25113.69533001  .00000195  00000-0  10437-3 0  9992
2 25397  98.9678  91.8443 0001474  29.7040 330.4221 14.24299667391617
ISS
1 25544U 98067A   25114.24122616 -.00347094  00000-0 -65384-2 0  9994
2 25544  51.6351 214.2454 0002566 101.5255 356.7242 15.49158740506793
NO-44
1 26931U 01043C   25113.77189983  .00000418  00000-0  18768-3 0  9999
2 26931  67.0507 248.8586 0005617 271.5044  88.5414 14.31705364230404
SO-50
1 27607U 02058C   25113.91023515  .00002412  00000-0  31881-3 0  9998
2 27607  64.5557 344.5802 0050760 345.0931  14.8675 14.81472009202310
CO-55
1 27844U 03031E   25113.74233766  .00000669  00000-0  31078-3 0  9995
2 27844  98.6778 122.6179 0008922 330.4221  29.6452 14.23950662131973
CO-57
1 27848U 03031J   25112.47387228  .00000584  00000-0  27691-3 0  9993
2 27848  98.6805 121.4074 0009306 352.1561   7.9470 14.23290160131524
RS-22
1 27939U 03042A   25114.52998513  .00002607  00000-0  42121-3 0  9992
2 27939  98.3242 282.8823 0012165 151.2430 300.4688 14.72205483154054
NOAA-18
1 28654U 05018A   25114.40208408  .00000314  00000-0  19004-3 0  9993
2 28654  98.8424 194.3966 0013125 258.9467 101.0230 14.13582653 27221
CO-58
1 28895U 05043F   25113.64911431  .00003513  00000-0  58233-3 0  9991
2 28895  98.2417 257.4366 0015879  96.6693 263.6320 14.70808708 40040
CO-65
1 32785U 08021C   25113.83959686  .00009510  00000-0  69447-3 0  9990
2 32785  97.7823  84.6860 0010767  24.6089 335.5648 15.03838810922054
AAUSAT2
1 32788U 08021F   25113.88885990  .00378704  00000-0  23223-2 0  9999
2 32788  97.5996 110.3304 0009248 130.1399 230.0677 15.76184615926125
CO-66
1 32791U 08021J   25114.16941979  .00018761  00000-0  94172-3 0  9991
2 32791  97.7250  93.2266 0003343  11.6205 348.5105 15.17351693923539
RS-30
1 32953U 08025A   25114.85081013  .00000038  00000-0  20251-3 0  9990
2 32953  82.5006 255.6149 0020277 144.0744 216.1703 12.43163091767852
NOAA-19
1 33591U 09005A   25114.18865274  .00000294  00000-0  18042-3 0  9992
2 33591  99.0002 178.6266 0014680 132.6754 227.5657 14.13347179835556
SRMSAT
1 37841U 11058D   25113.93061192  .00000571  00000-0  16673-3 0  9990
2 37841  19.9718  76.8365 0011561 271.5095 120.3539 14.11416731698519
ZACUBE-1
1 39417U 13066B   25113.84546911  .00006940  00000-0  61009-3 0  9998
2 39417  97.7768  71.1361 0043366 205.9032 154.0019 14.96134474617920
Delfi-N3xt
1 39428U 13066N   25113.75866570  .00008951  00000-0  92487-3 0  9994
2 39428  97.8357  31.9602 0086674 153.5294 207.0388 14.87575451612114
GOMX-1
1 39430U 13066Q   25114.80394193  .00003793  00000-0  59517-3 0  9997
2 39430  97.6898 336.2686 0132433 339.6167  19.9781 14.67440760608696
LO-74
1 39440U 13066AA  25114.80316922  .00009651  00000-0  98270-3 0  9990
2 39440  97.8467  59.7010 0061780 332.9207  26.8792 14.89507160615820
AO-73
1 39444U 13066AE  25112.84601981  .00011917  00000-0  90938-3 0  9999
2 39444  97.7723  74.6190 0040954 186.0376 174.0360 15.01480903617018
DTUSAT-2
1 40030U 14033W   25112.38046062  .00013484  00000-0  89234-3 0  9997
2 40030  98.0524  81.9074 0007841 211.9854 148.0897 15.07453790589130
EO-80
1 40032U 14033Y   25113.66430080  .00012157  00000-0  80292-3 0  9999
2 40032  98.0396  82.9706 0009473 148.0555 212.1247 15.07543880589304
LILACSAT-2
1 40908U 15049K   25114.49159327  .00019109  00000-0  51747-3 0  9990
2 40908  97.5099 133.7553 0008188 337.4685  22.6199 15.37686678531140
IO-86
1 40931U 15052B   25038.81889873  .00001817  00000-0  15548-3 0  9993
2 40931   6.0001 108.1159 0012838 187.7041 172.2889 14.78568669506492
Horyu-4
1 41340U 16012D   25113.62048922  .00031659  00000-0  91241-3 0  9991
2 41340  30.9969  87.2256 0008433 283.6284  76.3422 15.34483115505561
Lapan A3
1 41603U 16040E   25114.84088908  .00006759  00000-0  23849-3 0  9999
2 41603  97.1383 121.2523 0013091  75.9191 284.3504 15.29473998490791
CAS-2T
1 41847U 16066G   25113.82090313  .00001392  00000-0  20827-3 0  9998
2 41847  98.4216 188.6858 0345794 320.1253  37.4989 14.43356135444274
CAS-4B
1 42759U 17034B   25113.80445317  .00077032  00000-0  10181-2 0  9998
2 42759  43.0084 239.4473 0019834 321.7272  38.2182 15.57177854435296
CAS-4A
1 42761U 17034D   25113.80591544  .00079641  00000-0  10169-2 0  9999
2 42761  43.0120 237.0244 0021091 326.1977  33.7540 15.58049911435302
TechnoSat
1 42829U 17042E   25113.93024835  .00005997  00000-0  46831-3 0  9990
2 42829  97.3927 284.8703 0015646  79.0866 281.2118 15.01371653423727
AO-91
1 43017U 17073E   25112.16894181  .00016202  00000-0  84430-3 0  9995
2 43017  97.5334 344.1733 0173921 332.1022  27.0959 15.03840618401934
S-Net D
1 43186U 18014G   25114.16054322  .00007895  00000-0  47242-3 0  9993
2 43186  97.5659  17.5488 0010234  34.8614 325.3285 15.11262339395361
S-Net B
1 43187U 18014H   25113.70186500  .00007764  00000-0  46492-3 0  9998
2 43187  97.5666  17.0639 0010916  31.1590 329.0285 15.11237133395290
S-Net A
1 43188U 18014J   25113.69760580  .00007938  00000-0  47498-3 0  9993
2 43188  97.5673  17.2039 0010704  32.2082 327.9800 15.11260021395290
S-Net C
1 43189U 18014K   25113.70416215  .00007778  00000-0  46564-3 0  9994
2 43189  97.5692  17.2164 0012055  24.1954 335.9840 15.11234963393848
Ten-Koh
1 43677U 18084G   25113.71465289  .00004341  00000-0  35123-3 0  9991
2 43677  98.0919 284.1076 0008761  80.5636 279.6577 15.00301754353216
PO-101
1 43678U 18084H   25113.90463991  .00005060  00000-0  43259-3 0  9999
2 43678  98.1026 288.2612 0010277  84.5154 275.7239 14.98074377353397
QO-100
1 43700U 18090A   25114.17907117  .00000146  00000-0  00000+0 0  9998
2 43700   0.0134 215.6051 0001715 217.2583 229.8484  1.00269902 23715
MinXSS-2
1 43758U 18099A   25113.80697090  .00022505  00000-0  92804-3 0  9995
2 43758  97.5056 179.7374 0010585 323.6217  36.4299 15.24026646349849
AO-95
1 43770U 18099N   25114.13959435  .00013688  00000-0  70950-3 0  9990
2 43770  97.4964 172.7593 0010877  23.4045 336.7680 15.16241943349518
RANGE-A
1 43773U 18099R   25114.57674737  .00007664  00000-0  49347-3 0  9993
2 43773  97.4534 164.3156 0010916 359.1127   1.0081 15.08582095349288
MOVE-II
1 43780U 18099Y   25112.18693026  .00168226  00000-0  21641-2 0  9996
2 43780  97.4694 184.7893 0003230 247.0231 113.0684 15.58490530350225
SNUSat 2
1 43782U 18099AA  25113.95281824  .00012070  00000-0  67130-3 0  9992
2 43782  97.4653 169.6996 0010752 320.0850  39.9590 15.13767887349441
SnugLite
1 43784U 18099AC  25114.57551814  .00017078  00000-0  87707-3 0  9997
2 43784  97.4457 169.7829 0002228 336.8713  23.2419 15.16563257349661
ITASat 1
1 43786U 18099AE  25114.10699132  .00010866  00000-0  63049-3 0  9995
2 43786  97.4614 169.4926 0014442  13.4500 346.7113 15.12234331349439
EAGLET 1
1 43790U 18099AJ  25113.06679002  .00006681  00000-0  43077-3 0  9997
2 43790  97.4815 168.5818 0011829   1.6358 358.4907 15.08572085348901
ESEO
1 43792U 18099AL  25114.11698069  .00002740  00000-0  21100-3 0  9995
2 43792  97.4536 163.4851 0010676 334.2241  25.8451 15.02410639348841
CSIM
1 43793U 18099AM  25114.14823555  .00138189  00000-0  17376-2 0  9995
2 43793  97.4871 189.0370 0006138 255.3019 104.7557 15.59186627350372
JO-97
1 43803U 18099AX  25114.11578952  .00017985  00000-0  84652-3 0  9994
2 43803  97.4714 173.6370 0006291 312.8935  47.1771 15.19585095349717
Suomi 100
1 43804U 18099AY  25114.12402471  .00014017  00000-0  70367-3 0  9999
2 43804  97.4774 173.0667 0011056 312.8373  47.1930 15.17359187349657
ISAT
1 43879U 18111D   25114.68375629  .00035252  00000-0  12923-2 0  9998
2 43879  97.5987  28.1231 0009558  16.9177 343.2378 15.27864367344665
UWE-4
1 43880U 18111E   25113.69640942  .00023732  00000-0  97064-3 0  9993
2 43880  97.5927  25.9071 0013382  25.5755 334.6141 15.24261346346485
Sparrow
1 43881U 18111F   25113.71911779  .00030125  00000-0  10714-2 0  9996
2 43881  97.6118  29.8435 0009376  55.8010 304.4117 15.28895467346629
Prox-1
1 44339U 19036A   25112.99926436  .00016995  00000-0  22228-2 0  9999
2 44339  23.9972  14.0892 0007157 250.1753 109.7973 14.78790249310960
SONATE
1 44400U 19038Q   25113.64200936  .00150926  00000-0  98989-3 0  9994
2 44400  97.6985 134.9276 0008147  84.3838 275.8355 15.75266114322149
Taurus 1
1 44530U 19059C   25114.84599214  .00016261  00000-0  30277-2 0  9992
2 44530  98.6006 252.1048 0010790 173.7274 186.4064 14.65112411297246
